Weather History for KATW - February, 2013

Change the Weather History Date:

Tuesday, February 19, 2013

  Actual Average Record
Temperature  
Mean Temperature 19 °F -  
Max Temperature 32 °F 32 °F 58 °F (1981)
Min Temperature 6 °F 17 °F -16 °F (2015)
Degree Days  
Heating Degree Days 46    
Moisture  
Dew Point 11 °F    
Average Humidity 82    
Maximum Humidity 100    
Minimum Humidity 62    
Precipitation  
Precipitation 0.00 in - - ()
Sea Level Pressure  
Sea Level Pressure 29.74 in    
Wind  
Wind Speed 17 mph (WNW)    
Max Wind Speed 23 mph    
Max Gust Speed 32 mph    
Visibility 5 miles    
Events Snow    
Averages and records for this station are not official NWS values.
T = Trace of Precipitation, MM = Missing Value Source: NWS Daily Summary

Daily Weather History Graph

Daily Weather History Graph

Search for Another Location

Airport or City:

Trip Planner

Search our weather history database for the weather conditions in past years. The results will help you decide how hot, cold, wet, or windy it might be!

Date:

Astronomy

Feb. 19, 2013 Rise Set
Actual Time 6:47 AM CST 5:29 PM CST
Civil Twilight 6:17 AM CST 5:58 PM CST
Nautical Twilight 5:43 AM CST 6:32 PM CST
Astronomical Twilight 5:10 AM CST 7:06 PM CST
Moon 11:53 AM CST (2/19) 2:25 AM CST (2/19)
Length of Visible Light 11h 41m
Length of Day
10h 42m
Waxing Gibbous, 67% of the Moon is Illuminated
Feb 19
Waxing Gibbous
Feb 25
Full
Mar 4
Last Quarter
Mar 11
New
Mar 19
First Quarter

Hourly Weather History & Observations

Time (CST) Temp. Windchill Dew Point Humidity Pressure Visibility Wind Dir Wind Speed Gust Speed Precip Events Conditions
12:15 AM 32.0 °F 23.0 °F 32.0 °F 100% 29.44 in 1.5 mi West 11.5 mph - N/A Snow Light Snow
12:35 AM 32.0 °F 23.0 °F 32.0 °F 100% 29.44 in 1.2 mi West 11.5 mph - N/A Snow Light Snow
12:55 AM 30.2 °F 17.4 °F 28.4 °F 93% 29.45 in 1.5 mi West 20.7 mph 26.5 mph N/A Snow Light Snow
1:15 AM 28.4 °F 15.8 °F 28.4 °F 100% 29.45 in 2.0 mi West 18.4 mph 24.2 mph N/A Snow Light Snow
1:35 AM 26.6 °F 13.4 °F 26.6 °F 100% 29.45 in 1.5 mi West 18.4 mph 24.2 mph N/A Snow Light Snow
1:55 AM 26.6 °F 13.4 °F 24.8 °F 93% 29.45 in 0.8 mi West 18.4 mph - N/A Snow Snow
2:15 AM 26.6 °F 14.3 °F 24.8 °F 93% 29.45 in 2.0 mi West 16.1 mph - N/A Snow Light Snow
2:35 AM 24.8 °F 11.1 °F 24.8 °F 100% 29.45 in 2.5 mi West 18.4 mph - N/A Snow Light Snow
3:15 AM 23.0 °F 9.2 °F 23.0 °F 100% 29.47 in 3.0 mi West 17.3 mph - N/A Snow Light Snow
3:35 AM 23.0 °F 8.3 °F 23.0 °F 100% 29.47 in 3.0 mi West 19.6 mph 23.0 mph N/A Snow Light Snow
3:55 AM 23.0 °F 9.2 °F 23.0 °F 100% 29.48 in 4.0 mi West 17.3 mph 24.2 mph N/A Snow Light Snow
4:15 AM 23.0 °F 9.2 °F 21.2 °F 93% 29.49 in 3.0 mi West 17.3 mph 23.0 mph N/A Snow Light Snow
5:15 AM 21.2 °F 6.4 °F 19.4 °F 93% 29.52 in 4.0 mi West 18.4 mph 25.3 mph N/A Snow Light Snow
6:45 AM 17.6 °F 0.5 °F 15.8 °F 93% 29.56 in 2.0 mi WNW 21.9 mph 26.5 mph N/A Snow Light Snow
7:45 AM 17.6 °F 0.9 °F 15.8 °F 93% 29.60 in 1.5 mi WNW 20.7 mph 28.8 mph N/A Snow Light Snow
8:45 AM 15.8 °F -2.3 °F 12.2 °F 86% 29.64 in 1.2 mi WNW 23.0 mph 32.2 mph N/A Snow Light Snow
9:45 AM 14.0 °F -4.7 °F 10.4 °F 86% 29.67 in 2.0 mi WNW 23.0 mph 28.8 mph N/A Snow Light Snow
10:45 AM 14.0 °F -4.3 °F 8.6 °F 79% 29.70 in 1.5 mi NW 21.9 mph 29.9 mph N/A Snow Light Snow
11:45 AM 12.2 °F -5.8 °F 6.8 °F 79% 29.74 in 2.0 mi WNW 19.6 mph 25.3 mph N/A Snow Light Snow
12:45 PM 12.2 °F -6.7 °F 6.8 °F 79% 29.77 in 1.5 mi WNW 21.9 mph 27.6 mph N/A Snow Light Snow
1:45 PM 10.4 °F -8.6 °F 5.0 °F 79% 29.80 in 2.0 mi WNW 20.7 mph 28.8 mph N/A Snow Light Snow
2:32 PM 10.4 °F -9.5 °F 3.2 °F 73% 29.83 in 5.0 mi West 23.0 mph 28.8 mph N/A   Haze
2:45 PM 10.4 °F -8.2 °F 3.2 °F 73% 29.85 in 7.0 mi West 19.6 mph 26.5 mph N/A   Mostly Cloudy
3:15 PM 10.4 °F -9.1 °F 1.4 °F 67% 29.87 in 10.0 mi WNW 21.9 mph 31.1 mph N/A   Mostly Cloudy
3:45 PM 10.4 °F -9.5 °F 1.4 °F 67% 29.88 in 10.0 mi West 23.0 mph 28.8 mph N/A   Scattered Clouds
4:45 PM 10.4 °F -8.6 °F 1.4 °F 67% 29.91 in 10.0 mi West 20.7 mph 25.3 mph N/A   Mostly Cloudy
6:45 PM 8.6 °F -9.5 °F -0.4 °F 67% 29.99 in 10.0 mi WNW 17.3 mph 24.2 mph N/A   Mostly Cloudy
7:45 PM 8.6 °F -11.4 °F -0.4 °F 67% 30.02 in 10.0 mi NW 21.9 mph 29.9 mph N/A   Mostly Cloudy
8:45 PM 8.6 °F -10.0 °F -2.2 °F 62% 30.04 in 10.0 mi WNW 18.4 mph 26.5 mph N/A   Scattered Clouds
9:45 PM 6.8 °F -10.7 °F -2.2 °F 67% 30.07 in 10.0 mi WNW 15.0 mph 23.0 mph N/A   Scattered Clouds
9:55 PM 8.6 °F -8.3 °F -0.4 °F 67% 30.07 in 10.0 mi WNW 15.0 mph - N/A   Clear
10:15 PM 8.6 °F -8.3 °F -0.4 °F 67% 30.07 in 10.0 mi WNW 15.0 mph - N/A   Clear
10:35 PM 8.6 °F -8.3 °F -0.4 °F 67% 30.08 in 10.0 mi WNW 15.0 mph - N/A   Clear
10:45 PM 6.8 °F -11.8 °F -2.2 °F 67% 30.08 in 10.0 mi WNW 17.3 mph - N/A   Scattered Clouds
10:55 PM 8.6 °F -7.0 °F -0.4 °F 67% 30.08 in 10.0 mi WNW 12.7 mph - N/A   Clear
11:15 PM 8.6 °F -7.7 °F -0.4 °F 67% 30.09 in 10.0 mi NW 13.8 mph - N/A   Clear
11:35 PM 8.6 °F -8.9 °F -0.4 °F 67% 30.09 in 10.0 mi NW 16.1 mph 21.9 mph N/A   Clear